Dean International
Flight School

Career Spotlight

Mika

Mika

Congratulations to Mika from Khazakstan. She recently sent us this photo of her flying an Airbus airliner.

More...
Mika's Success Story
close

Congratulations to Mika from Khazakstan. She recently sent us this photo of her flying an Airbus airliner.

Mario

Mario

My dreams could not have been realized if I wouldn't have been part of the Dean International family.

More...
Mario's Success Story
close

"My dreams could not have been realized if I wouldn't have been part of the Dean International family. Thank you Robert, thanks to all my co-workers, and thanks to all of my students!"

Fernando

Fernando

I am now working as a First Officer at TACA and am enjoying every moment of it.

More...
Fernando's Success Story
close

"Will never forget my time of flight training at Dean International. I am now working as a First Officer at TACA and am enjoying every moment of it."

Alvaro

Alvaro

Because of the flight time I was able to built while instructing, I got the experience needed to apply to an airline in Colombia.

More...
Alvaro's Success Story
close

Dean alumnus Alvaro Londoño currently flies with Tampa Cargo. He says of his experience at Dean: "I want to take this opportunity to thank you for giving me the chance to build my experience and expand my knowledge in Dean International. Because of the flight time I was able to built flight instructing, I got the experience needed to apply to an airline in Colombia."

Ralph

Ralph

Every Aruban student of Dean International has made it into Tiara Air Aruba, that is very nice.

More...
Ralph's Success Story
close

"Next to me is my Co-Pilot, Elison. This picture was taken on our first flight together, which was almost exactly 5 years after I finished at Dean International. [...] Every Aruban student of Dean International has made it into Tiara Air Aruba. [...] The future looks bright here in Aruba."

Rohaan

Rohaan

The [..] staff will all work diligently to help you finish your certificates as safely and efficiently as possible.

More...
Rohaan's Success Story
close

After receiving very hard times from other flight schools [...], I came to Dean International where Robert Dean personally sat down with me and gave me a financial and chronological look into how much remained to finish my private pilot certificate. Through his hard efforts as an instructor and mentor, I was able to finish my private pilot certificate within one week.

Welcome to Dean International

In over two decades, Dean International has educated over 7,000 pilots from all over the world, including over 1,000 students from India alone. By offering a great training experience, a friendly service staff, an ample variety of aircraft, and by improving constantly, we have become one of the largest, most prestigious FAA 141-approved flight schools in North America. Located in Miami, Florida, USA, our flight school offers an ideal location for year-round, "learn to fly" weather, flight training. Dean International is not only well-equipped to provide services to professional trainees but also caters to General Aviation renters. Visit or contact our headquarters at Kendall-Tamiami Executive Airport located in Miami, FL today to learn more about us, or simply read more about our programs if you are an international student interested in joining our school.

Local Airport Information
TAF FOR KTMB (Issued: Fri, May 22nd 2015 7:48 PM UTC)
TAF
      AMD KTMB 221844Z 2219/2318 10008KT P6SM VCTS SCT040CB BKN070
      TEMPO 2219/2221 VRB15G25KT 3SM SHRA BKN030 BKN060
      FM222200 11007KT P6SM VCSH SCT040 BKN100 BKN250
      FM230000 VRB03KT P6SM FEW025
      FM231500 09010KT P6SM SCT035
     
METAR FOR KTMB (Issued: Fri, May 22nd 2015 8:23 PM UTC):
KTMB 222023Z 14005KT 10SM VCTS FEW100 26/23 A3004 RMK AO2 LTG DSNT SW-N TSB1959E14 PRESFR T02610228

This weather information is provided by the National Weather Service.
It is automatically refreshed every three minutes.
TAF FOR KHST (Issued: Fri, May 22nd 2015 7:58 PM UTC)
TAF
      AMD KHST 2219/2322 13009KT 9000 -SHRA VCTS BKN040CB BKN200 QNH3002INS
      TEMPO 2219/2223 VRB10G20KT 4800 -TSRA BKN035CB OVC100
      BECMG 2222/2223 15006KT 9999 NSW SCT040 SCT080 QNH3005INS
      BECMG 2314/2315 09010G15KT 9999 FEW030 QNH3009INS TX34/2220Z TN25/2308Z
      AMD 221947
     
METAR FOR KHST (Issued: Fri, May 22nd 2015 8:00 PM UTC):
KHST 222000Z 09006KT 10SM VCTS SCT060CB SCT080 BKN250 30/22 A3006 RMK TS MOVD S

This weather information is provided by the National Weather Service.
It is automatically refreshed every three minutes.
TAF FOR KOPF (Issued: Fri, May 22nd 2015 6:42 PM UTC)
TAF KOPF 221739Z 2218/2318 08009KT P6SM VCTS SCT045CB SCT250
      FM222100 11007KT P6SM FEW040 SCT250
      FM230200 VRB03KT P6SM FEW025
      FM231500 09010KT P6SM SCT035
     
METAR FOR KOPF (Issued: Fri, May 22nd 2015 8:12 PM UTC):
KOPF 222012Z VRB05KT 10SM TS FU HZ SCT085 32/23 A3007 RMK AO2 LTG DSNT SW-N TSB06 T03170228

This weather information is provided by the National Weather Service.
It is automatically refreshed every three minutes.
TAF FOR KMIA (Issued: Fri, May 22nd 2015 6:45 PM UTC)
TAF KMIA 221740Z 2218/2318 13009KT P6SM VCTS SCT030CB BKN060 BKN250
      FM222100 11007KT P6SM FEW040 SCT250
      FM230100 VRB03KT P6SM FEW025
      FM231500 09010KT P6SM SCT035
     
METAR FOR KMIA (Issued: Fri, May 22nd 2015 7:53 PM UTC):
KMIA 221953Z 14008KT 10SM SCT025 SCT055 SCT170 BKN300 31/22 A3007 RMK AO2 SLP182 CB DSNT N AND SW-W MOV S TCU DSNT NW T03110222

This weather information is provided by the National Weather Service.
It is automatically refreshed every three minutes.
Design by Ariel Llizo
© Dean International Inc. 2012